When you browse on this site, cookies collect data to enhance your experience and personalize the content and advertising you see.
Visit our Privacy Policy to learn more. By continuing to use the site, you agree to this use of cookies and data.
  • In Denmark
  • List of Countries
  • For 7 days
  • Water Temperature
  • Satellite Maps
  • Weather Map
  • Weather Widgets
  • user-avatar
    Login

    Hourly Weather Spasskie Vyselki

    Today, 18 July, Thursday

    Time Temperature Precipitation Wind Pressure Humidity
    00:00 +14°C° 0 mm 1 mps 736 mmHg 93%
    01:00 +14°C° 0 mm 2 mps 736 mmHg 93%
    02:00 +13°C° 0 mm 2 mps 736 mmHg 94%
    03:00 +13°C° 0 mm 2 mps 736 mmHg 93%
    04:00 +13°C° 0 mm 2 mps 736 mmHg 93%
    05:00 +13°C° 0 mm 2 mps 736 mmHg 93%
    06:00 +15°C° 0 mm 2 mps 736 mmHg 89%
    07:00 +16°C° 0 mm 2 mps 736 mmHg 85%
    08:00 +18°C° 0 mm 2 mps 736 mmHg 82%
    09:00 +18°C° 1 mm 3 mps 736 mmHg 78%
    10:00 +19°C° 1 mm 4 mps 736 mmHg 74%
    11:00 +20°C° 1 mm 4 mps 736 mmHg 70%
    12:00 +20°C° 0.4 mm 4 mps 736 mmHg 71%
    13:00 +20°C° 0.4 mm 5 mps 736 mmHg 72%
    14:00 +20°C° 0.4 mm 5 mps 736 mmHg 72%
    15:00 +20°C° 0.3 mm 5 mps 736 mmHg 75%
    16:00 +19°C° 0.3 mm 5 mps 736 mmHg 77%
    17:00 +17°C° 0.3 mm 5 mps 736 mmHg 80%
    18:00 +17°C° 0.1 mm 4 mps 736 mmHg 83%
    19:00 +15°C° 0.1 mm 4 mps 736 mmHg 86%
    20:00 +14°C° 0.1 mm 4 mps 736 mmHg 90%
    21:00 +14°C° 0.1 mm 4 mps 737 mmHg 91%
    22:00 +13°C° 0.1 mm 4 mps 737 mmHg 93%
    23:00 +13°C° 0.1 mm 4 mps 737 mmHg 95%

    Tomorrow, 19 July, Friday

    Time Temperature Precipitation Wind Pressure Humidity
    00:00 +13°C° 0 mm 4 mps 737 mmHg 96%
    01:00 +13°C° 0 mm 4 mps 737 mmHg 96%
    02:00 +12°C° 0 mm 4 mps 737 mmHg 97%
    03:00 +13°C° 0 mm 4 mps 737 mmHg 96%
    04:00 +13°C° 0 mm 4 mps 738 mmHg 95%
    05:00 +13°C° 0 mm 4 mps 738 mmHg 94%
    06:00 +14°C° 0 mm 5 mps 738 mmHg 90%
    07:00 +16°C° 0 mm 6 mps 738 mmHg 86%
    08:00 +17°C° 0 mm 6 mps 738 mmHg 82%
    09:00 +17°C° 0.1 mm 6 mps 738 mmHg 82%
    10:00 +17°C° 0.1 mm 6 mps 739 mmHg 82%
    11:00 +17°C° 0.1 mm 6 mps 739 mmHg 83%
    12:00 +17°C° 0 mm 6 mps 739 mmHg 80%
    13:00 +19°C° 0 mm 6 mps 739 mmHg 77%
    14:00 +20°C° 0 mm 6 mps 739 mmHg 74%
    15:00 +20°C° 0 mm 6 mps 739 mmHg 75%
    16:00 +20°C° 0 mm 6 mps 740 mmHg 75%
    17:00 +20°C° 0 mm 5 mps 740 mmHg 76%
    18:00 +17°C° 0 mm 5 mps 740 mmHg 80%
    19:00 +17°C° 0 mm 4 mps 740 mmHg 84%
    20:00 +16°C° 0 mm 3 mps 741 mmHg 89%
    21:00 +14°C° 0 mm 4 mps 741 mmHg 90%
    22:00 +14°C° 0 mm 4 mps 741 mmHg 91%
    23:00 +13°C° 0 mm 4 mps 741 mmHg 92%

    Day after tomorrow, 20 July, Saturday

    Time Temperature Precipitation Wind Pressure Humidity
    00:00 +13°C° 0 mm 4 mps 741 mmHg 92%
    01:00 +13°C° 0 mm 4 mps 741 mmHg 92%
    02:00 +12°C° 0 mm 4 mps 742 mmHg 92%
    03:00 +12°C° 0 mm 4 mps 742 mmHg 91%
    04:00 +13°C° 0 mm 4 mps 742 mmHg 91%
    05:00 +13°C° 0 mm 4 mps 742 mmHg 90%
    06:00 +14°C° 0 mm 4 mps 742 mmHg 86%
    07:00 +15°C° 0 mm 5 mps 743 mmHg 82%
    08:00 +17°C° 0 mm 5 mps 743 mmHg 79%
    09:00 +17°C° 0 mm 5 mps 743 mmHg 77%
    10:00 +19°C° 0 mm 5 mps 743 mmHg 75%
    11:00 +20°C° 0 mm 5 mps 743 mmHg 73%
    12:00 +20°C° 0.5 mm 5 mps 744 mmHg 74%
    13:00 +21°C° 0.5 mm 5 mps 744 mmHg 74%
    14:00 +21°C° 0.5 mm 6 mps 744 mmHg 74%
    15:00 +21°C° 0.4 mm 5 mps 744 mmHg 76%
    16:00 +21°C° 0.4 mm 4 mps 744 mmHg 78%
    17:00 +21°C° 0.4 mm 4 mps 744 mmHg 79%
    18:00 +19°C° 0.1 mm 4 mps 744 mmHg 83%
    19:00 +18°C° 0.1 mm 3 mps 744 mmHg 87%
    20:00 +17°C° 0.1 mm 3 mps 745 mmHg 90%
    21:00 +16°C° 0 mm 3 mps 745 mmHg 92%
    22:00 +14°C° 0 mm 3 mps 745 mmHg 93%
    23:00 +14°C° 0 mm 3 mps 745 mmHg 94%

    21 July, Sunday

    Time Temperature Precipitation Wind Pressure Humidity
    00:00 +13°C° 0 mm 3 mps 745 mmHg 95%
    01:00 +13°C° 0 mm 3 mps 745 mmHg 95%
    02:00 +13°C° 0 mm 3 mps 745 mmHg 96%
    03:00 +13°C° 0 mm 3 mps 745 mmHg 96%
    04:00 +13°C° 0 mm 3 mps 745 mmHg 96%
    05:00 +13°C° 0 mm 3 mps 745 mmHg 96%
    06:00 +16°C° 0 mm 3 mps 745 mmHg 92%
    07:00 +17°C° 0 mm 3 mps 746 mmHg 87%
    08:00 +19°C° 0 mm 3 mps 746 mmHg 82%
    09:00 +20°C° 0.1 mm 3 mps 746 mmHg 78%
    10:00 +21°C° 0.1 mm 4 mps 746 mmHg 75%
    11:00 +22°C° 0.1 mm 4 mps 746 mmHg 71%
    12:00 +22°C° 0.6 mm 4 mps 746 mmHg 71%
    13:00 +22°C° 0.6 mm 4 mps 746 mmHg 72%
    14:00 +23°C° 0.6 mm 4 mps 745 mmHg 72%
    15:00 +24°C° 0.4 mm 3 mps 745 mmHg 73%
    16:00 +22°C° 0.4 mm 3 mps 745 mmHg 74%
    17:00 +22°C° 0.4 mm 3 mps 745 mmHg 75%
    18:00 +21°C° 0.1 mm 3 mps 745 mmHg 79%
    19:00 +19°C° 0.1 mm 2 mps 745 mmHg 83%
    20:00 +17°C° 0.1 mm 2 mps 745 mmHg 87%
    21:00 +17°C° 0 mm 2 mps 745 mmHg 88%
    22:00 +16°C° 0 mm 2 mps 745 mmHg 89%
    23:00 +15°C° 0 mm 2 mps 746 mmHg 91%

    22 July, Monday

    Time Temperature Precipitation Wind Pressure Humidity
    00:00 +15°C° 0 mm 2 mps 745 mmHg 91%
    01:00 +15°C° 0 mm 2 mps 745 mmHg 92%
    02:00 +14°C° 0 mm 1 mps 745 mmHg 93%
    03:00 +14°C° 0 mm 1 mps 745 mmHg 92%
    04:00 +14°C° 0 mm 1 mps 745 mmHg 92%
    05:00 +15°C° 0 mm 1 mps 745 mmHg 91%
    06:00 +16°C° 0 mm 1 mps 745 mmHg 86%
    07:00 +19°C° 0 mm 1 mps 745 mmHg 80%
    08:00 +21°C° 0 mm 1 mps 745 mmHg 75%
    09:00 +21°C° 0 mm 2 mps 745 mmHg 70%
    10:00 +23°C° 0 mm 2 mps 745 mmHg 65%
    11:00 +25°C° 0 mm 2 mps 745 mmHg 60%
    12:00 +25°C° 0.2 mm 2 mps 745 mmHg 60%
    13:00 +25°C° 0.2 mm 2 mps 745 mmHg 60%
    14:00 +25°C° 0.2 mm 2 mps 744 mmHg 60%
    15:00 +25°C° 0.3 mm 2 mps 744 mmHg 63%
    16:00 +25°C° 0.3 mm 2 mps 744 mmHg 67%
    17:00 +24°C° 0.3 mm 2 mps 744 mmHg 70%
    18:00 +22°C° 0.2 mm 1 mps 744 mmHg 75%
    19:00 +21°C° 0.2 mm 1 mps 744 mmHg 80%
    20:00 +19°C° 0.2 mm 1 mps 744 mmHg 84%
    21:00 +18°C° 0 mm 1 mps 744 mmHg 86%
    22:00 +18°C° 0 mm 1 mps 744 mmHg 87%
    23:00 +16°C° 0 mm 1 mps 744 mmHg 88%

    23 July, Tuesday

    Time Temperature Precipitation Wind Pressure Humidity
    00:00 +16°C° 0 mm 1 mps 744 mmHg 88%
    01:00 +15°C° 0 mm 1 mps 744 mmHg 89%
    02:00 +15°C° 0 mm 2 mps 744 mmHg 89%
    03:00 +15°C° 0 mm 2 mps 744 mmHg 89%
    04:00 +15°C° 0 mm 2 mps 744 mmHg 89%
    05:00 +15°C° 0 mm 2 mps 743 mmHg 89%
    06:00 +17°C° 0 mm 2 mps 743 mmHg 85%
    07:00 +18°C° 0 mm 2 mps 743 mmHg 81%
    08:00 +20°C° 0 mm 2 mps 743 mmHg 77%
    09:00 +21°C° 0.1 mm 3 mps 743 mmHg 73%
    10:00 +22°C° 0.1 mm 3 mps 743 mmHg 69%
    11:00 +24°C° 0.1 mm 3 mps 743 mmHg 65%
    12:00 +24°C° 0.2 mm 3 mps 743 mmHg 64%
    13:00 +24°C° 0.2 mm 3 mps 743 mmHg 62%
    14:00 +24°C° 0.2 mm 3 mps 743 mmHg 61%
    15:00 +24°C° 0.3 mm 3 mps 743 mmHg 64%
    16:00 +24°C° 0.3 mm 2 mps 743 mmHg 67%
    17:00 +23°C° 0.3 mm 2 mps 743 mmHg 71%
    18:00 +21°C° 0.1 mm 2 mps 743 mmHg 74%
    19:00 +19°C° 0.1 mm 2 mps 743 mmHg 77%
    20:00 +17°C° 0.1 mm 2 mps 743 mmHg 80%
    21:00 +16°C° 0 mm 2 mps 743 mmHg 82%
    22:00 +15°C° 0 mm 2 mps 743 mmHg 84%
    23:00 +14°C° 0 mm 2 mps 743 mmHg 86%
    Show more